Back to catalog

DELTA 1 R/B

AliveUNKNOWN
NORAD 341·ROCKET BODY·🇺🇸 United States

Launched Jul 10, 1962 from Cape Canaveral Space Force Station

Loading…

Next Passes (next 24 hours)

TLE

FreshSource: Space-Track

Epoch: Sep 14, 2026, 11:23 UTC

1 00341U 62029B   26257.47435721 -.00000107  00000-0 -44959-3 0  9996
2 00341  44.7930  48.6990 2420906  79.2278 335.7166  9.14329056143302

Track DELTA 1 R/B in real time with AllMySat

Download on the App Store